Weather observations for the past three days for
Keesler Air Force Base / Biloxi
Imperial (Metric)
Date Time (cdt) Wind (mph) Vis. (mi.) Weather Sky Cond. Temperature (ºF) Relative Humidity Wind Chill (°F) Heat Index (°F) Pressure Precipitation (in)
Air Dwpt 6 hour altimeter (in) sea level (mb) 1 hr 3 hr 6 hr
Max. Min.
22 22:55 SW 6 10.00 Fair CLR 80.8 73.9 80% 86 30 1016.2
22 21:55 SW 6 10.00 Fair CLR 81 73.4 78% 86 30 1016.2
22 20:55 SW 7 10.00 Fair CLR 82.2 72.7 73% 88 29.98 1015.5
22 19:55 SW 7 10.00 Fair CLR 83.1 71.8 69% 88 29.97 1015.2
22 18:55 SW 10 10.00 Fair CLR 86.4 71.2 91 86.2 61% 92 29.97 1015.2
22 17:55 SW 10 10.00 Fair CLR 87.4 70.7 58% 93 29.97 1015.2
22 16:55 S 10 10.00 Fair CLR 88.9 70 54% 94 29.97 1015.2
22 15:55 S 9 10.00 Fair CLR 89.6 69.1 51% 94 29.98 1015.5
22 14:55 S 12 10.00 Fair CLR 90.1 67.6 48% 94 30 1016.2
22 13:55 S 8 10.00 Fair CLR 90.3 68.5 49% 95 30.01 1016.5
22 12:55 S 7 10.00 A Few Clouds FEW210 90.1 63.9 90.9 75.7 42% 91 30.03 1017.2
22 11:55 S 7 10.00 Fair CLR 89.1 69.1 52% 94 30.05 1017.9
22 10:55 E 5 10.00 Fair CLR 88.9 68.9 52% 93 30.06 1018.2
22 09:55 NE 3 10.00 Fair CLR 86 71.4 62% 92 30.06 1018.2
22 08:55 NE 3 10.00 Fair CLR 82.8 71.4 69% 88 30.07 1018.5
22 07:55 NE 5 10.00 Fair CLR 79.9 72 77% 84 30.07 1018.5
22 06:55 Calm 10.00 Fair CLR 75.6 70.7 79.3 73 85% 76 30.06 1018.2
22 05:55 Calm 10.00 Fair CLR 74.7 70.5 87% 30.05 1017.9
22 04:55 Calm 10.00 Fair CLR 74.7 71.1 89% 30.05 1017.9
22 03:55 N 3 10.00 Fair CLR 75.4 70.9 86% 75 30.04 1017.5
22 02:55 N 3 10.00 Fair CLR 76.6 72.5 87% 78 30.04 1017.5
22 01:55 Calm 10.00 Fair CLR 78.6 72.7 82% 82 30.05 1017.9
22 00:55 Calm 10.00 Fair CLR 79 70.3 85.1 78.8 75% 82 30.06 1018.2
21 23:55 SW 3 10.00 Fair CLR 80.8 70.9 72% 85 30.07 1018.5
21 22:55 Calm 10.00 Fair CLR 80.1 70.5 73% 83 30.07 1018.5
21 21:55 S 3 10.00 Fair CLR 82.4 70.3 67% 87 30.06 1018.2
21 20:55 S 5 10.00 Fair CLR 82.9 70.3 66% 87 30.05 1017.9
21 19:55 S 3 10.00 Fair CLR 83.7 69.6 63% 88 30.04 1017.5
21 18:55 S 6 10.00 Fair CLR 85.1 69.1 89.2 85.1 59% 89 30.04 1017.5
21 17:55 S 6 10.00 Fair CLR 86.2 70.5 60% 91 30.04 1017.5
21 16:55 S 9 10.00 Fair CLR 87.4 69.8 56% 92 30.05 1017.9
21 15:55 S 12 10.00 Fair CLR 88.9 70 54% 94 30.07 1018.5
21 14:55 S 10 10.00 A Few Clouds FEW065 88.7 71.4 57% 95 30.08 1018.9
21 13:55 S 13 10.00 Mostly Cloudy FEW160 SCT180 BKN210 88.9 71.6 57% 95 30.1 1019.6
21 12:55 SE 14 10.00 Mostly Cloudy SCT060 BKN150 BKN180 87.8 72.1 89.1 79.3 60% 95 30.11 1019.9
21 11:55 S 13 10.00 Mostly Cloudy SCT043 BKN050 88.3 74.1 63% 97 30.11 1019.9
21 10:55 SE 12 10.00 Fair CLR 88 73.8 63% 96 30.12 1020.2
21 09:55 E 13 10.00 A Few Clouds FEW070 86.9 74.5 67% 96 30.13 1020.6
21 08:55 E 9 10.00 Overcast FEW065 OVC080 82.8 73.2 73% 89 30.13 1020.6
21 07:55 E 9 10.00 Mostly Cloudy FEW070 BKN085 80.1 71.8 76% 84 30.13 1020.6
21 06:55 NE 9 10.00 Overcast BKN055 OVC085 79.2 72.3 79.5 76.5 80% 82 30.12 1020.2
21 05:55 NE 6 10.00 Mostly Cloudy BKN080 77.5 72.3 84% 79 30.11 1019.9
21 04:55 NE 6 10.00 Fair CLR 76.8 72.7 87% 78 30.1 1019.6
21 03:55 NE 7 10.00 Fair CLR 77.9 73 85% 80 30.09 1019.2
21 02:55 NE 7 10.00 A Few Clouds FEW095 77.9 73.4 86% 80 30.09 1019.2
21 01:55 NE 5 10.00 Overcast OVC090 79.2 73.8 84% 83 30.11 1019.9
21 00:55 NE 6 10.00 Mostly Cloudy BKN090 79.5 73.4 85.8 79.5 82% 83 30.12 1020.2
20 23:55 E 6 10.00 Overcast SCT065 OVC080 81 73.4 78% 86 30.12 1020.2
20 22:55 E 6 10.00 Mostly Cloudy BKN055 BKN065 82 73.6 76% 88 30.12 1020.2
20 21:55 E 5 10.00 Fair CLR 82.6 74.1 76% 89 30.11 1019.9
20 20:55 E 5 10.00 Fair CLR 83.3 74.1 74% 90 30.1 1019.6
20 19:55 SE 12 10.00 Fair CLR 84 74.3 73% 91 30.1 1019.6
20 18:55 SE 6 10.00 Fair CLR 85.8 73 90.1 85.6 66% 93 30.08 1018.9
20 17:55 SE 13 10.00 A Few Clouds FEW095 86.7 72.5 63% 94 30.09 1019.2
20 16:55 SE 14 10.00 Fair CLR 87.4 72.7 62% 95 30.09 1019.2
20 15:55 SE 14 10.00 Fair CLR 87.6 72.9 62% 95 30.1 1019.6
20 14:55 SE 14 10.00 Fair CLR 87.4 72.7 62% 95 30.12 1020.2
20 13:55 S 13 10.00 Mostly Cloudy FEW050 SCT150 BKN180 88.2 70.3 56% 94 30.13 1020.6
20 12:55 E 13 10.00 Partly Cloudy FEW046 FEW160 SCT210 88.2 65.8 88.7 77.2 48% 90 30.14 1020.9
20 11:55 E 13 10.00 Fair CLR 87.4 67.6 52% 91 30.14 1020.9
20 10:55 E 10 10.00 A Few Clouds FEW030 86.2 70.2 59% 91 30.14 1020.9
20 09:55 E 13 10.00 Fair CLR 84.2 69.3 61% 88 30.13 1020.6
20 08:55 E 12 10.00 Fair CLR 82.4 69.8 66% 86 30.12 1020.2
20 07:55 E 12 10.00 Fair CLR 79.7 69.4 71% 83 30.1 1019.6
20 06:55 NE 8 10.00 Fair CLR 77.2 70.2 77.7 75.6 79% 79 30.08 1018.9
20 05:55 E 9 10.00 Partly Cloudy FEW021 SCT055 76.6 70.7 82% 78 30.06 1018.2
20 04:55 E 9 10.00 Partly Cloudy SCT036 SCT060 77.7 70.7 79% 80 30.05 1017.9
20 03:55 NE 8 10.00 Fair CLR 75.7 71.2 86% 76 30.04 1017.5
20 02:55 NE 7 10.00 Fair CLR 75.9 72.3 89% 76 30.05 1017.9
20 01:55 NE 6 10.00 Fair CLR 76.1 72.5 89% 76 30.05 1017.9
20 00:55 NE 5 10.00 Mostly Cloudy BKN095 77.4 73.4 84.6 76.8 88% 79 30.06 1018.2
19 23:55 NE 3 10.00 Fair CLR 77 72.9 87% 78 30.07 1018.5
Date Time (cdt) Wind (mph) Vis. (mi.) Weather Sky Cond. Air Dwpt Max. Min. Relative Humidity Wind Chill (°F) Heat Index (°F) altimeter (in) sea level (mb) 1 hr 3 hr 6 hr
6 hour
Temperature (ºF) Pressure Precipitation (in)